SCP
0 0 0 0 0 0 0 0 0 0 0 0 0 0 0 0 0 0 0 1 1 1 1 1 1 1 1 1 1 0 0 0 0 0 0 0 0 0 0 0 0 0 0 0
0 0 0 0 0 0 0 0 0 0 0 0 0 0 0 0 0 0 1 1 1 1 1 1 1 1 1 1 1 1 0 0 0 0 0 0 0 0 0 0 0 0 0 0
0 0 0 0 0 0 0 0 0 0 0 0 0 0 0 0 0 1 1 1 1 0 0 0 0 1 1 1 1 1 0 0 0 0 0 0 0 0 0 0 0 0 0 0
0 0 0 0 0 0 0 0 0 0 0 0 0 0 0 0 0 1 1 1 0 0 0 0 0 0 1 1 1 1 0 0 0 0 0 0 0 0 0 0 0 0 0 0
0 0 0 0 0 0 0 0 0 0 0 0 0 0 0 0 0 0 0 0 0 0 0 0 0 0 0 0 0 0 0 0 0 0 0 0 0 0 0 0 0 0 0 0
0 0 0 0 0 0 0 0 0 0 0 0 0 0 0 0 0 1 1 0 0 0 0 0 0 0 0 0 0 0 0 0 0 0 0 0 0 0 0 0 0 0 0 0
0 0 0 0 0 0 0 0 0 0 0 0 0 0 0 0 1 1 1 1 0 0 0 0 0 0 0 0 0 0 0 0 0 0 0 0 0 0 0 0 0 0 0 0
0 0 0 0 0 0 0 0 0 0 0 0 0 0 0 0 1 1 1 1 1 0 0 0 0 0 0 0 0 0 0 0 0 0 0 0 0 0 0 0 0 0 0 0
0 0 0 0 0 0 0 0 0 0 0 0 0 0 0 1 1 1 1 1 1 0 0 0 0 0 0 0 0 0 0 0 0 0 0 0 0 0 0 0 0 0 0 0
0 0 0 0 0 0 0 0 0 0 0 0 0 0 0 0 0 0 0 0 0 0 0 0 1 0 0 0 0 0 0 0 0 0 0 0 0 0 0 0 0 0 0 0
0 0 0 0 0 0 0 0 0 0 0 0 0 0 0 0 0 0 0 0 0 0 0 0 1 1 0 0 0 0 0 0 0 0 0 0 0 0 0 0 0 0 0 0
0 0 0 0 0 0 0 0 0 0 0 0 0 0 0 0 0 0 0 0 0 0 0 0 0 0 0 0 0 0 0 0 0 0 0 0 0 0 0 0 0 0 0 0
0 0 0 0 0 0 0 0 0 0 0 0 0 0 0 0 0 0 0 0 0 0 0 0 0 0 0 0 0 0 0 0 0 0 0 0 0 0 0 0 0 0 0 0
0 0 0 0 0 0 0 0 0 0 0 0 0 0 0 0 0 0 0 0 0 0 0 0 0 0 0 0 0 0 0 0 0 0 0 0 0 0 0 0 0 0 0 0
0 0 0 0 0 0 0 0 0 0 0 0 0 0 0 0 0 0 0 0 0 0 0 0 0 0 0 0 0 0 0 0 0 0 0 0 0 0 0 0 0 0 0 0
0 0 0 0 0 0 0 0 0 0 0 0 0 0 0 0 0 0 0 0 0 0 0 0 0 0 0 0 0 0 0 0 0 0 0 0 0 0 0 0 0 0 0 0
0 0 0 0 0 0 0 0 0 0 0 0 0 0 0 0 0 0 0 0 0 0 0 0 0 0 0 0 0 0 0 0 0 0 0 0 0 0 0 0 0 0 0 0
0 0 0 0 0 0 0 0 0 0 0 0 0 0 0 0 0 0 0 0 0 0 0 0 0 0 0 0 0 0 0 0 0 0 0 0 0 0 0 0 0 0 0 0
0 0 0 0 0 0 0 0 0 0 0 0 0 0 0 0 0 0 0 0 0 0 0 0 0 0 0 0 0 0 0 0 0 0 0 0 0 0 0 0 0 0 0 0
0 0 0 0 0 0 0 0 0 0 0 0 0 0 0 0 0 0 0 0 0 0 0 0 0 0 0 0 0 0 0 0 0 0 0 0 0 0 0 0 0 0 0 0
0 0 0 0 0 0 0 0 0 0 0 0 0 0 0 0 0 0 0 0 0 0 0 0 0 0 0 0 0 0 0 0 0 0 0 0 0 0 0 0 0 0 0 0
0 0 0 0 0 0 0 0 0 0 0 0 0 0 0 0 0 0 0 0 0 0 0 0 0 0 0 0 0 0 0 0 0 0 0 0 0 0 0 0 0 0 0 0
0 0 0 0 0 0 0 0 0 0 0 0 0 0 0 0 0 0 0 0 0 0 0 0 0 0 0 0 0 0 0 0 0 0 0 0 0 0 0 0 0 0 0 0
0 0 0 0 0 0 0 0 0 0 0 0 0 0 0 0 0 0 0 0 0 0 0 0 0 0 0 0 0 0 0 0 0 0 0 0 0 0 0 0 0 -0 -0 0
0 0 0 0 0 0 0 0 0 0 0 0 0 0 0 0 0 0 0 0 0 0 0 0 0 0 0 0 0 0 0 0 0 0 0 0 0 0 0 0 0 0 0 0
0 0 0 0 0 0 0 0 0 0 0 0 0 0 0 0 0 0 0 0 0 0 0 0 0 0 0 0 0 0 0 0 0 0 0 0 0 0 0 0 0 0 0 0
0 0 0 0 0 0 0 0 0 0 0 0 0 0 0 0 0 0 0 0 0 0 0 0 0 0 0 0 0 0 0 0 0 0 0 0 0 0 0 0 0 0 0 0
Wind_Speed
3 2 3 3 4 6 5 8 8 8 7 8 6 5 3 1 1 2 2 2 3 3 3 4 4 4 4 4 4 4 4 3 3 2 2 2 2 2 2 2 2 2 2 2
1 0 2 2 2 5 4 5 5 3 6 5 2 1 1 2 3 3 2 2 3 4 4 4 3 4 4 4 4 4 4 4 3 4 3 3 3 3 3 2 2 2 2 2
1 1 2 1 3 4 3 3 7 7 8 3 2 3 4 3 4 4 3 3 3 3 3 3 2 3 4 4 4 5 4 3 3 4 3 3 3 4 4 3 3 3 2 3
3 3 3 7 3 3 4 2 3 3 3 5 4 2 1 2 4 4 4 3 3 3 3 2 3 3 4 4 4 4 4 4 3 3 3 3 3 3 3 3 3 2 2 2
4 3 3 4 1 2 3 2 2 4 3 2 3 3 2 1 3 3 3 3 3 4 4 3 3 3 5 5 5 4 4 3 3 4 4 4 4 3 3 3 3 2 2 2
5 4 6 6 2 1 3 2 2 5 6 5 5 3 3 2 4 4 4 3 4 4 5 5 4 5 5 5 4 3 3 3 3 3 4 4 4 3 3 3 3 3 3 3
4 3 6 4 4 1 4 6 3 4 5 5 4 4 3 3 3 4 4 4 4 5 4 3 4 5 5 4 3 2 3 3 4 3 4 4 4 3 3 4 4 4 4 3
5 3 6 3 1 4 5 2 2 2 2 3 3 3 4 4 4 5 5 4 4 4 4 3 4 5 5 3 2 3 4 4 4 4 4 4 5 4 4 4 5 4 3 3
6 6 4 2 2 3 2 2 1 2 2 5 5 4 4 5 4 4 5 4 4 4 4 4 3 4 4 2 2 4 5 4 4 5 4 4 5 4 4 3 3 3 3 3
1 3 3 2 2 1 0 2 1 2 3 4 5 5 5 5 4 4 4 4 4 5 5 4 3 4 3 3 3 4 5 5 5 5 5 5 4 3 3 3 3 3 3 3
1 3 3 3 2 1 1 2 4 3 4 5 7 6 6 5 4 3 3 3 4 5 5 4 3 4 4 3 4 5 5 5 5 5 5 5 5 4 3 3 2 3 2 3
4 4 2 3 3 2 1 2 3 3 3 4 6 7 6 5 4 4 4 4 4 4 4 4 4 4 4 3 4 5 5 4 4 4 4 4 5 6 10 8 9 8 6 4
4 2 2 2 2 2 1 2 2 3 3 4 4 6 6 5 4 4 4 5 5 4 4 4 4 4 3 3 4 5 4 4 3 3 4 4 4 5 5 6 10 10 8 7
2 1 0 1 1 2 2 3 4 4 3 3 4 5 6 5 5 5 4 4 5 5 4 4 4 4 3 3 4 4 4 4 4 3 3 4 4 4 4 5 4 4 6 8
2 1 2 1 1 2 3 4 5 4 4 4 4 5 6 6 5 5 4 4 5 5 4 4 4 3 3 3 4 4 4 3 3 3 4 4 4 4 4 5 5 4 4 4
1 1 2 3 2 2 4 4 4 3 3 3 3 4 5 6 6 5 5 5 5 5 4 4 4 3 3 3 4 4 3 6 4 4 4 4 4 4 4 4 4 4 4 3
2 2 2 2 2 2 2 3 4 4 3 3 3 4 5 6 7 6 5 4 5 4 3 4 3 3 3 3 4 3 3 4 6 5 4 4 4 4 4 4 4 4 3 3
3 3 3 4 4 3 2 2 3 3 3 3 3 5 6 6 6 5 5 5 5 5 4 3 3 3 3 4 4 3 4 4 4 4 4 4 4 4 4 4 4 5 4 4
2 2 3 3 3 3 2 2 3 3 3 4 5 5 5 5 6 6 5 5 5 4 2 3 4 5 5 5 6 4 5 5 5 5 5 6 5 4 4 4 4 4 4 4
2 2 3 3 3 3 3 3 3 3 3 4 6 6 6 5 6 6 6 4 2 2 2 3 4 4 4 5 7 4 5 6 6 5 5 5 5 4 4 4 4 4 4 3
2 2 3 3 3 3 3 3 4 4 3 5 6 7 6 5 5 5 5 3 1 2 3 5 4 4 4 5 6 5 5 6 6 5 5 5 4 4 4 4 4 3 3 3
2 2 3 3 4 3 3 3 4 4 5 5 6 6 6 5 5 4 3 2 2 3 3 3 3 5 6 6 4 5 5 6 5 5 4 4 4 4 4 4 3 3 3 3
2 2 3 3 4 3 3 3 4 5 5 5 6 6 6 4 3 4 3 1 2 5 4 3 6 8 8 5 4 5 5 5 5 4 4 4 3 4 3 3 3 3 3 3
2 3 3 3 5 5 4 3 4 4 5 5 4 5 5 5 3 2 3 4 6 6 4 5 9 9 8 4 4 4 4 4 4 4 4 3 4 4 3 3 3 3 3 4
3 3 3 4 5 4 4 4 5 5 5 5 5 4 3 3 4 3 3 4 6 6 5 6 9 8 6 4 4 4 3 3 3 4 3 4 4 4 3 3 3 3 3 3
3 3 3 3 3 3 4 4 4 4 4 4 4 3 3 3 4 4 4 5 6 6 5 4 4 5 4 4 4 4 3 3 3 3 4 4 4 4 3 3 4 3 3 2
3 3 3 3 3 3 4 4 4 4 4 5 4 3 4 4 4 4 5 4 4 4 4 3 3 4 4 4 4 3 3 3 3 3 3 3 3 3 3 4 3 3 2 2
Wind_Direction
197 203 154 148 167 167 163 172 174 212 217 241 235 229 233 211 152 102 83 97 111 112 118 123 127 134 139 137 133 134 135 141 146 134 125 117 117 119 114 114 118 120 117 106
82 304 152 126 175 175 183 173 179 178 240 242 223 174 181 169 156 147 151 151 128 113 117 121 128 131 130 133 131 129 136 140 129 122 122 121 119 114 107 96 88 98 106 103
203 298 86 260 223 178 178 187 172 193 222 187 170 194 201 187 169 169 166 147 138 132 126 121 123 123 129 132 127 129 133 132 127 126 127 126 123 115 114 107 94 91 99 104
124 104 199 239 247 184 163 180 199 211 203 187 186 191 202 174 165 169 166 144 135 124 106 88 93 109 114 114 121 126 126 124 121 124 121 118 113 111 109 107 108 110 102 96
120 151 253 291 253 155 161 223 199 185 184 154 124 82 3 142 146 155 153 145 140 130 117 110 103 107 111 113 118 122 128 135 135 135 132 123 116 114 112 111 104 94 87 87
125 146 213 239 270 257 118 253 230 176 178 166 138 143 235 166 127 121 119 120 120 112 112 114 111 112 110 110 115 126 136 139 132 133 135 131 128 122 111 109 105 97 83 76
140 173 251 260 292 107 159 231 218 184 183 171 184 196 173 116 111 119 116 108 108 109 105 103 105 110 109 110 118 123 115 111 109 113 122 122 118 114 113 108 103 94 86 75
140 164 242 299 57 170 217 238 164 173 176 163 153 115 109 112 112 109 105 97 96 97 88 79 88 105 107 103 100 99 101 102 104 103 105 110 111 107 104 107 105 97 93 79
177 202 236 260 227 257 222 179 178 162 162 144 129 122 111 110 109 102 104 99 89 95 90 79 78 98 107 99 99 105 106 104 99 92 87 98 109 110 103 104 109 107 106 99
206 278 292 299 307 327 153 158 142 136 135 134 135 132 123 119 114 107 100 102 101 99 92 77 68 76 92 101 101 109 109 104 99 95 87 80 83 89 97 101 111 114 114 112
250 289 334 342 339 338 27 77 91 93 116 134 132 131 128 120 112 111 104 99 102 108 106 93 79 75 75 82 98 100 98 95 94 96 100 91 79 63 75 74 110 130 132 129
214 222 203 268 313 352 69 94 110 108 97 111 128 133 124 121 123 126 120 111 103 97 98 95 88 78 70 74 93 103 100 98 100 105 104 104 104 83 57 67 71 74 80 96
219 226 205 261 326 11 67 76 96 107 120 117 115 122 122 120 119 115 109 107 106 101 94 90 96 88 73 79 90 98 107 108 104 109 111 113 118 120 106 71 62 61 65 79
212 148 9 310 350 23 77 78 82 83 89 99 107 105 106 108 111 107 106 104 104 98 88 84 83 71 61 77 90 95 99 103 105 109 113 115 118 120 121 118 98 64 54 68
298 207 196 182 71 74 90 96 96 88 81 80 97 111 118 123 124 117 105 98 98 91 86 85 79 61 56 83 96 99 98 95 97 102 106 108 109 110 110 110 107 100 86 68
252 124 122 115 118 110 110 114 120 127 114 105 115 130 134 128 119 111 106 107 107 100 94 90 79 57 60 86 92 93 100 108 108 111 110 108 109 112 113 115 111 110 108 102
157 155 144 145 151 149 151 155 158 156 142 140 147 139 128 118 111 111 108 105 105 101 93 90 83 73 76 89 96 97 98 104 104 106 109 111 110 112 114 117 117 112 103 93
190 190 188 180 173 175 166 140 140 143 149 150 141 130 128 127 129 128 122 112 99 84 70 75 87 94 93 94 98 101 101 99 99 106 108 108 108 109 109 109 115 114 105 95
183 169 160 164 166 157 153 146 142 135 131 131 131 133 131 128 125 118 113 107 104 95 60 64 85 92 97 104 103 98 101 100 97 95 97 99 98 98 102 105 109 111 113 109
120 118 126 132 131 136 140 136 129 118 121 132 129 124 118 117 118 117 112 102 101 126 127 108 100 96 97 105 104 100 104 106 105 101 97 98 102 103 102 105 110 113 114 113
116 110 118 122 120 120 122 127 128 129 129 128 128 129 124 118 117 118 117 108 69 102 114 111 107 105 101 105 105 105 107 108 108 108 107 105 105 106 105 107 112 114 114 111
116 112 115 116 113 109 110 117 130 133 127 123 122 123 119 114 110 104 98 118 125 121 117 112 111 109 109 110 108 107 108 110 110 110 108 109 112 115 115 115 116 116 114 112
104 105 105 109 112 106 95 109 125 127 127 129 131 133 129 127 127 127 122 115 121 119 115 111 112 110 109 107 107 106 109 112 115 114 115 118 123 125 124 122 123 124 122 120
104 98 103 108 109 109 112 113 109 109 111 111 116 125 130 124 107 97 114 118 115 113 107 110 112 110 107 102 103 106 109 113 116 118 121 121 122 123 125 127 126 123 124 125
115 113 116 120 122 128 127 112 103 102 102 97 96 100 107 115 121 122 114 115 116 113 106 106 108 107 105 104 106 109 113 120 127 126 125 127 127 128 131 134 135 134 133 133
120 123 123 125 125 122 118 119 121 121 119 112 102 99 102 101 106 109 107 107 109 112 111 109 111 109 110 113 114 114 115 119 119 120 128 132 133 134 138 142 143 146 146 145
112 113 110 104 103 115 121 124 128 132 134 130 121 113 111 110 109 110 110 111 112 110 108 107 109 113 114 113 113 114 116 119 122 125 132 136 141 147 153 153 150 145 143 147